Wind_Speed
34 35 35 35 34 33 32 31 32 34 32 32 33 30 28 26 24 22 17 15 15 15 14 13 12 12 11 12 10 10 12 16 17 15 15 14 13 15 11 5 10 5 7 6 3 5 2
34 35 36 36 36 35 34 33 32 32 33 31 32 29 28 27 23 19 18 16 18 15 15 13 13 12 12 12 11 11 11 14 15 15 18 19 20 19 17 15 10 10 10 6 3 7 1
34 35 37 37 38 37 36 35 34 33 32 33 32 31 30 26 23 21 19 18 18 16 15 16 14 13 14 12 13 12 12 13 13 16 20 22 19 19 14 12 12 12 7 3 7 6 5
34 35 35 37 38 38 38 37 36 36 34 33 31 30 29 27 27 24 20 19 19 16 16 17 14 13 13 14 13 14 14 14 14 17 19 22 23 22 22 15 13 7 3 7 13 16 11
34 36 36 35 36 38 39 39 38 38 37 35 33 31 29 27 26 27 24 19 21 20 17 15 14 13 14 14 14 15 15 15 15 19 20 19 20 22 20 14 3 9 13 17 5 13 14
32 35 37 36 36 36 39 40 40 39 38 37 36 33 31 30 28 28 27 22 21 23 21 20 15 13 14 15 15 16 16 16 16 19 21 21 19 18 17 13 8 9 11 10 10 7 9
30 31 35 36 36 36 35 37 40 39 39 38 38 36 34 33 31 31 29 26 23 25 26 24 21 19 14 14 15 16 16 16 16 17 21 23 23 21 16 15 15 19 12 15 12 12 8
32 31 32 35 36 35 35 34 36 39 40 40 39 38 37 36 34 33 32 30 27 25 23 27 27 24 19 15 15 17 18 18 17 17 19 21 23 18 19 27 25 20 14 11 11 14 9
31 31 29 32 34 36 35 35 34 34 37 40 40 39 38 37 36 34 33 31 30 27 25 25 22 23 24 20 18 17 20 20 18 18 18 21 11 25 19 18 19 16 14 12 14 12 6
28 30 28 30 31 32 34 35 34 34 33 34 38 39 39 39 38 35 34 32 29 28 26 25 26 25 21 22 20 19 19 21 21 19 20 22 23 18 18 16 14 13 13 15 14 11 1
24 26 26 26 28 30 31 33 34 33 33 34 34 36 39 39 38 38 32 32 30 28 26 28 27 22 22 23 22 19 20 21 22 22 21 17 22 18 18 16 14 10 15 14 12 12 11
23 23 23 26 26 27 28 30 31 30 31 32 34 36 37 39 39 36 35 32 29 28 27 32 29 26 24 23 23 22 20 21 24 24 23 24 21 19 18 17 16 13 13 10 10 10 12
26 26 22 23 25 25 25 25 26 26 27 26 28 29 34 39 39 37 35 33 32 34 31 27 27 25 25 25 25 23 21 20 22 22 22 24 22 21 20 19 16 15 11 7 8 9 11
33 25 28 28 25 25 25 26 25 26 27 26 27 27 29 35 39 39 37 36 38 32 27 31 31 27 25 26 28 27 26 22 21 22 15 18 21 24 23 20 13 17 15 11 7 12 17
5 38 28 28 28 27 24 26 27 26 24 24 24 22 23 28 35 39 40 40 38 34 36 37 33 30 26 27 26 28 28 24 22 22 24 14 18 18 25 22 20 13 17 14 17 16 15
3 5 10 13 17 21 24 24 26 26 26 25 24 22 21 25 30 34 39 40 38 44 40 37 30 22 22 22 31 27 26 27 24 24 24 17 18 19 20 22 23 22 15 16 14 14 15
13 13 10 14 13 14 17 19 23 26 26 27 27 27 24 24 25 31 34 32 39 39 35 34 32 30 29 22 22 22 24 24 27 25 25 25 24 14 20 25 20 22 23 18 13 12 15
21 17 16 15 14 15 15 15 16 19 20 23 27 31 28 28 29 28 29 32 39 31 33 32 35 36 38 29 34 25 21 19 26 26 27 24 22 22 16 18 19 19 18 19 17 16 16
24 24 22 21 19 17 17 18 17 15 15 18 23 23 29 31 31 31 34 31 28 31 31 33 33 34 40 41 40 33 23 27 32 26 26 25 27 21 24 17 23 25 23 20 18 20 17
24 25 23 23 22 22 21 19 19 19 18 18 17 22 26 28 32 32 34 31 32 32 32 33 32 35 37 37 41 39 38 40 34 29 33 30 27 28 19 17 18 25 23 22 23 20 16
18 20 22 24 23 24 24 22 21 21 19 19 20 23 21 29 31 31 33 34 32 34 33 35 33 33 30 32 38 40 38 24 35 35 31 32 34 29 27 24 12 17 19 19 22 21 18
20 19 18 20 22 22 23 23 23 22 22 20 20 22 23 28 28 31 31 30 32 35 38 35 33 31 30 33 33 21 32 24 28 35 34 32 32 28 30 27 20 22 19 20 20 21 23
26 21 19 19 20 21 22 23 23 24 23 21 21 23 24 26 28 31 34 37 35 36 34 35 39 38 38 34 33 42 46 48 43 41 37 35 32 30 31 24 24 28 22 20 18 20 20
29 27 23 22 22 23 22 21 20 20 20 19 21 23 25 26 26 29 37 34 36 37 36 38 40 38 41 36 29 32 36 40 41 38 37 37 33 29 26 22 28 27 24 23 23 20 20
34 30 29 27 26 25 26 22 21 20 19 19 22 25 25 26 29 30 30 32 36 37 37 38 37 43 38 34 31 29 33 38 40 40 40 35 32 26 25 26 22 33 29 26 23 24 31
37 35 31 31 26 24 27 25 22 20 19 20 22 23 22 24 30 27 27 29 31 36 41 38 40 37 38 36 33 32 31 27 34 36 39 38 33 32 24 27 29 29 26 30 29 29 30
37 35 35 30 25 25 27 26 24 20 18 19 21 19 19 21 21 25 29 31 31 31 33 40 38 35 36 35 33 30 27 22 23 24 30 35 34 32 28 26 29 36 42 32 26 32 39
33 33 34 30 26 25 25 28 26 22 19 19 20 18 17 16 17 21 25 29 32 34 35 37 32 33 32 37 28 23 22 26 27 31 30 32 27 26 27 33 40 48 25 24 30 33 35
32 33 33 29 27 26 26 29 27 22 18 18 20 18 17 15 15 17 21 26 29 30 31 31 33 37 38 34 40 37 33 32 36 32 32 33 33 38 37 45 30 51 24 31 27 26 25
Wind_Direction
223 222 221 220 220 219 219 218 216 216 217 216 218 223 228 236 242 249 256 250 231 233 235 236 239 232 227 230 232 218 205 201 206 200 196 192 186 177 182 212 207 144 249 227 277 269 222
225 224 223 222 222 222 221 221 220 220 220 220 222 225 228 235 243 248 251 238 230 233 233 237 237 231 226 224 222 214 207 204 207 199 191 192 195 184 174 214 177 222 215 235 233 271 143
225 223 224 224 223 222 222 222 222 223 224 223 226 229 232 228 234 245 247 239 226 229 232 236 233 229 227 214 214 211 211 205 200 195 195 187 187 187 195 189 212 186 176 297 297 251 247
227 225 223 224 225 224 223 223 223 224 225 225 226 227 228 231 227 236 243 240 224 232 235 237 234 230 230 222 211 208 211 206 196 195 198 192 191 192 181 202 176 198 262 233 213 274 267
226 224 223 223 225 226 226 225 224 225 225 226 226 226 226 226 227 228 235 238 222 228 227 231 230 231 229 228 215 209 209 208 199 193 200 194 193 190 194 184 214 254 230 175 271 268 252
227 224 223 222 223 225 226 226 226 226 226 227 228 228 226 226 225 225 230 234 230 224 224 232 235 235 226 227 221 213 209 208 202 192 198 196 193 194 193 206 202 238 254 296 269 261 261
226 226 225 224 223 223 226 228 228 228 229 229 229 228 229 228 226 226 227 231 233 229 227 232 232 242 237 235 230 219 212 208 205 197 196 199 199 201 206 230 207 238 243 223 250 266 240
235 229 228 225 224 225 225 226 228 228 229 229 230 230 229 230 230 228 229 231 233 237 233 234 236 241 239 237 236 227 219 211 206 198 193 203 206 204 218 208 221 230 237 252 267 270 258
231 224 227 228 226 226 226 227 227 228 229 230 230 231 231 231 231 231 230 230 231 233 234 237 234 237 238 239 236 232 224 218 214 209 196 198 214 225 221 219 219 228 234 247 261 264 282
234 224 227 227 228 229 228 228 228 229 230 230 230 230 230 231 231 230 230 229 229 231 234 237 233 234 235 233 235 233 228 223 220 219 215 211 215 217 217 217 221 232 260 247 242 248 317
230 224 226 228 228 228 229 229 231 231 232 233 233 232 230 230 230 230 229 229 228 228 233 240 232 234 237 231 233 232 230 226 223 222 223 225 228 224 220 220 221 203 224 234 250 249 261
225 221 226 222 223 225 226 227 228 230 233 234 234 234 232 230 229 228 228 227 227 226 226 235 237 232 233 232 235 237 231 227 226 226 223 225 228 229 228 229 229 214 239 254 258 253 255
223 222 220 216 218 219 222 225 228 230 233 234 237 237 235 232 228 227 226 225 224 223 226 238 236 233 234 234 235 237 234 232 232 230 230 234 235 232 231 235 234 234 228 247 270 274 265
230 228 216 224 222 227 225 226 231 234 234 236 241 242 239 231 224 222 223 222 224 223 220 232 230 231 231 233 234 237 237 233 230 225 210 247 243 237 235 233 242 240 211 218 241 256 259
236 225 224 234 218 227 229 226 227 227 227 231 235 238 236 229 222 220 222 224 226 226 224 234 231 230 233 233 233 233 232 234 234 229 226 235 231 252 232 227 225 247 225 225 242 245 236
219 235 205 211 210 218 221 222 228 229 229 228 227 227 226 225 222 221 223 224 226 230 231 234 233 234 229 236 234 232 233 232 230 234 227 224 216 235 237 228 229 204 237 225 239 243 244
221 213 231 215 217 220 221 221 230 230 228 227 228 226 222 220 219 222 225 224 227 233 230 227 223 216 215 211 224 222 226 231 228 229 232 225 231 228 231 234 230 229 232 218 216 235 244
246 234 232 227 224 214 220 212 218 222 223 223 226 228 224 223 224 223 220 222 226 228 226 224 226 225 223 222 228 214 226 221 236 222 230 226 233 204 235 249 234 217 238 235 230 253 245
244 244 242 237 236 235 234 231 226 226 223 224 226 228 226 225 227 227 226 227 222 222 221 222 223 224 225 226 228 219 212 223 230 219 225 219 224 228 224 234 239 237 226 219 231 226 252
249 242 238 241 241 244 242 240 238 237 237 237 233 231 227 227 231 232 230 227 223 221 221 221 223 226 227 227 230 223 222 228 229 220 225 223 222 222 218 234 246 271 245 235 232 235 241
248 243 240 240 239 241 242 241 244 246 245 242 240 238 236 232 228 228 230 229 227 225 224 223 224 228 230 231 229 226 227 222 224 224 223 226 229 228 215 211 235 228 243 235 235 227 228
244 246 248 245 241 239 238 240 243 244 247 249 249 246 238 239 233 232 229 229 226 227 223 223 226 229 232 233 228 214 226 229 230 230 223 224 230 227 228 219 226 237 233 238 233 226 229
242 239 248 257 250 241 238 239 240 240 241 245 250 250 244 240 232 229 230 225 224 228 229 229 228 226 232 233 227 220 223 220 221 220 220 228 230 230 234 232 230 241 228 236 233 226 228
238 236 241 248 259 252 246 241 241 243 241 246 252 249 244 238 230 223 233 229 229 227 225 224 227 226 234 234 236 235 235 229 228 227 229 232 234 228 230 232 231 239 238 231 234 230 223
234 235 242 245 246 251 252 242 239 238 240 242 245 239 235 234 230 234 233 228 231 230 228 228 226 228 232 235 233 229 227 228 227 225 226 229 229 228 225 231 235 239 223 214 216 230 215
231 233 238 243 239 243 246 240 236 232 234 235 232 228 227 231 230 235 235 233 228 224 226 227 228 228 227 229 230 228 227 228 229 229 226 225 227 225 230 214 232 245 248 230 223 229 234
228 233 233 237 237 241 239 238 235 230 230 231 225 220 221 227 227 228 230 232 231 229 224 229 226 226 227 227 226 228 228 222 226 229 243 224 222 224 219 230 236 228 221 220 219 225 240
224 226 225 229 234 234 236 234 231 228 229 227 220 217 219 224 222 225 225 228 230 227 224 230 226 228 225 224 218 215 214 219 218 221 202 229 224 217 224 224 232 239 231 204 218 227 234
218 218 222 226 230 236 237 230 225 222 225 230 224 219 218 222 223 223 223 223 227 228 229 229 228 231 227 225 221 206 199 218 200 227 222 202 203 205 208 225 226 225 239 233 230 246 252
Height
5852 5855 5859 5863 5867 5872 5876 5880 5883 5887 5891 5895 5898 5902 5904 5906 5909 5912 5914 5916 5917 5919 5919 5920 5921 5922 5922 5924 5925 5926 5927 5928 5930 5933 5935 5937 5940 5943 5945 5954 5952 5953 5955 5952 5952 5951 5950
5846 5850 5854 5858 5862 5867 5871 5875 5879 5882 5886 5890 5893 5897 5900 5903 5906 5908 5910 5912 5915 5916 5917 5918 5919 5920 5920 5922 5923 5924 5925 5927 5930 5932 5934 5935 5937 5940 5941 5948 5950 5953 5952 5953 5952 5952 5949
5841 5845 5849 5853 5857 5861 5865 5869 5873 5877 5881 5885 5888 5892 5896 5899 5902 5904 5907 5909 5911 5913 5914 5916 5917 5917 5918 5921 5922 5923 5925 5927 5929 5931 5932 5934 5936 5939 5943 5946 5948 5949 5951 5953 5954 5954 5951
5835 5839 5843 5847 5851 5855 5860 5864 5868 5872 5876 5880 5884 5887 5891 5895 5898 5901 5903 5906 5908 5911 5912 5914 5914 5915 5916 5919 5920 5922 5923 5926 5928 5930 5932 5934 5934 5937 5939 5943 5947 5948 5952 5957 5952 5952 5951
5828 5832 5836 5841 5845 5849 5853 5858 5862 5866 5870 5875 5879 5883 5886 5890 5893 5897 5900 5903 5905 5908 5910 5911 5913 5913 5915 5916 5918 5920 5922 5924 5927 5929 5932 5934 5935 5936 5941 5944 5948 5952 5951 5950 5956 5950 5950
5822 5826 5830 5835 5839 5843 5848 5852 5856 5860 5865 5869 5873 5877 5881 5885 5889 5892 5896 5899 5901 5904 5906 5908 5910 5913 5913 5915 5916 5918 5920 5922 5924 5927 5931 5933 5934 5936 5940 5945 5950 5955 5956 5952 5952 5953 5949
5817 5820 5824 5828 5833 5837 5841 5845 5849 5854 5858 5863 5867 5871 5875 5880 5884 5888 5892 5895 5898 5900 5902 5905 5907 5908 5910 5912 5914 5916 5918 5920 5923 5926 5928 5930 5933 5934 5939 5944 5948 5948 5949 5951 5951 5949 5947
5811 5814 5818 5822 5826 5831 5835 5839 5843 5847 5852 5857 5861 5866 5870 5874 5878 5882 5886 5888 5892 5896 5899 5900 5902 5905 5907 5909 5911 5913 5915 5918 5921 5924 5927 5929 5931 5934 5937 5937 5941 5944 5946 5949 5950 5946 5945
5806 5809 5813 5816 5820 5825 5829 5834 5838 5841 5846 5850 5855 5859 5863 5867 5872 5877 5880 5884 5887 5891 5893 5896 5898 5900 5903 5906 5908 5910 5913 5916 5918 5921 5924 5926 5933 5929 5932 5935 5937 5939 5944 5947 5949 5946 5944
5800 5803 5807 5811 5815 5819 5823 5827 5831 5835 5839 5843 5848 5852 5857 5861 5867 5870 5874 5879 5883 5886 5889 5892 5894 5896 5900 5902 5905 5907 5909 5913 5915 5919 5921 5924 5925 5927 5929 5932 5934 5938 5942 5942 5943 5944 5947
5795 5797 5801 5804 5808 5812 5816 5820 5824 5828 5832 5836 5840 5845 5850 5855 5860 5863 5870 5873 5877 5882 5886 5886 5887 5893 5896 5900 5901 5903 5905 5908 5912 5914 5919 5922 5922 5925 5927 5929 5931 5936 5936 5937 5938 5940 5943
5790 5793 5796 5799 5803 5807 5810 5814 5818 5821 5826 5829 5833 5838 5843 5848 5852 5858 5863 5867 5872 5877 5879 5878 5882 5888 5892 5895 5898 5899 5902 5904 5907 5911 5914 5915 5918 5921 5924 5925 5927 5931 5932 5934 5935 5938 5941
5785 5788 5791 5795 5799 5802 5805 5809 5813 5816 5820 5823 5827 5831 5835 5839 5845 5851 5856 5861 5867 5868 5873 5876 5879 5883 5887 5890 5893 5896 5899 5901 5905 5908 5911 5912 5914 5917 5920 5922 5924 5927 5930 5934 5937 5938 5938
5780 5782 5786 5790 5794 5797 5800 5804 5807 5810 5814 5817 5820 5824 5827 5831 5837 5843 5849 5854 5856 5863 5868 5868 5873 5878 5883 5886 5888 5891 5895 5898 5901 5904 5908 5910 5913 5913 5915 5919 5922 5923 5928 5934 5936 5937 5936
5772 5778 5781 5783 5786 5791 5795 5798 5802 5805 5809 5811 5814 5817 5819 5823 5829 5834 5841 5845 5851 5858 5861 5859 5868 5873 5877 5880 5884 5886 5890 5894 5897 5900 5903 5909 5910 5911 5911 5914 5918 5922 5922 5929 5930 5931 5931
5775 5777 5778 5780 5781 5785 5789 5793 5796 5799 5803 5806 5808 5812 5815 5818 5822 5827 5832 5838 5845 5845 5849 5856 5862 5868 5873 5876 5877 5881 5885 5890 5893 5895 5897 5904 5905 5907 5907 5910 5913 5916 5921 5923 5925 5927 5929
5773 5775 5777 5778 5780 5781 5784 5787 5791 5794 5797 5800 5803 5807 5810 5813 5816 5819 5825 5832 5835 5838 5845 5849 5854 5859 5864 5870 5872 5878 5881 5885 5887 5891 5892 5897 5901 5909 5904 5905 5910 5912 5914 5919 5924 5924 5924
5768 5771 5773 5775 5777 5779 5781 5783 5786 5788 5792 5794 5798 5800 5803 5807 5812 5815 5819 5823 5825 5833 5837 5841 5845 5850 5853 5859 5862 5870 5877 5880 5879 5885 5887 5892 5895 5899 5903 5902 5904 5912 5914 5914 5917 5920 5920
5763 5765 5768 5770 5772 5774 5776 5779 5781 5783 5786 5789 5791 5794 5797 5801 5805 5809 5812 5816 5821 5824 5829 5833 5837 5841 5844 5850 5856 5862 5869 5869 5872 5879 5883 5886 5889 5893 5897 5901 5900 5902 5906 5909 5913 5912 5913
5756 5758 5761 5764 5766 5768 5771 5773 5776 5778 5781 5783 5786 5788 5791 5795 5797 5802 5805 5810 5814 5817 5821 5826 5830 5833 5837 5843 5848 5854 5859 5861 5868 5873 5873 5880 5882 5885 5895 5899 5902 5897 5899 5902 5905 5909 5910
5749 5751 5754 5757 5759 5762 5765 5767 5770 5772 5775 5777 5779 5781 5785 5787 5791 5794 5798 5802 5807 5811 5816 5819 5823 5827 5832 5836 5841 5847 5853 5858 5862 5864 5869 5872 5875 5880 5885 5889 5894 5896 5895 5896 5897 5901 5906
5744 5746 5748 5751 5754 5756 5758 5761 5764 5766 5769 5771 5773 5775 5778 5779 5785 5789 5792 5796 5800 5803 5807 5813 5818 5822 5825 5828 5834 5842 5846 5853 5855 5858 5862 5866 5869 5874 5876 5882 5887 5888 5891 5893 5893 5897 5899
5737 5739 5742 5745 5748 5750 5753 5755 5758 5760 5763 5765 5767 5769 5771 5772 5777 5781 5784 5786 5791 5794 5802 5806 5809 5814 5816 5821 5825 5829 5830 5837 5844 5847 5854 5858 5863 5867 5870 5876 5880 5882 5885 5888 5889 5891 5895
5730 5733 5736 5739 5742 5744 5747 5749 5752 5755 5757 5759 5761 5763 5765 5767 5769 5772 5771 5779 5783 5787 5793 5796 5800 5807 5809 5814 5821 5824 5829 5834 5838 5844 5848 5852 5856 5861 5865 5870 5870 5877 5879 5883 5884 5887 5889
5723 5726 5730 5733 5736 5739 5741 5743 5746 5749 5751 5753 5755 5757 5758 5759 5762 5764 5767 5770 5774 5780 5785 5788 5795 5796 5804 5810 5815 5817 5821 5825 5830 5836 5841 5845 5850 5855 5859 5863 5868 5866 5869 5874 5875 5877 5868
5714 5718 5723 5727 5729 5732 5735 5737 5740 5743 5746 5748 5749 5751 5752 5754 5754 5759 5763 5765 5768 5771 5773 5781 5785 5792 5797 5803 5808 5810 5815 5821 5825 5829 5833 5839 5843 5848 5855 5856 5860 5861 5858 5864 5870 5873 5860
5705 5710 5715 5719 5723 5725 5728 5732 5735 5737 5740 5742 5744 5745 5747 5748 5751 5752 5754 5756 5762 5766 5769 5769 5778 5784 5789 5796 5802 5807 5812 5818 5823 5827 5828 5831 5836 5840 5847 5852 5854 5846 5841 5850 5860 5864 5857
5695 5700 5707 5712 5716 5719 5722 5726 5728 5731 5734 5736 5738 5740 5743 5744 5746 5747 5749 5752 5755 5758 5761 5761 5772 5777 5783 5787 5796 5803 5806 5814 5816 5814 5819 5825 5831 5839 5843 5839 5841 5835 5838 5843 5848 5853 5853
5687 5693 5698 5704 5709 5712 5716 5720 5722 5725 5728 5731 5734 5736 5738 5740 5743 5743 5744 5746 5748 5752 5756 5759 5763 5767 5773 5781 5784 5787 5796 5797 5806 5811 5810 5818 5820 5823 5823 5824 5805 5826 5831 5837 5843 5847 5848